星链-5362 (STARLINK-5362 )

导读 | 豆包AI

STARLINK-5362是美国SpaceX公司星链(Starlink)星座中的一颗卫星,于北京时间2023年2月2日8时发射升空。星链星座旨在构建全球卫星互联网,为全球各地提供高速低延迟网络接入服务,该卫星加入星座后,进一步扩充了星链的网络覆盖与服务能力。

基本信息
目录编号:
55493
目录名称:
STARLINK-5362
国际标识:
2023-015AW
轨道中心:
EARTH
卫星名称:
星链-5362
卫星全名:
星链-5362 (STARLINK-5362 )
卫星状态:
在轨 (已飞行1137 天)
发射日期:
2023-02-02 UTC
国别 :
美国 (US)
星等 :
--
轨道信息
数据来源 国际轨道数据
星历时间: 2026-03-15T14:00:01+0800
10小时前
查看轨道信息
半长轴: 6883.597km
偏心率: 0.0001851
轨道倾角: 42.999°
近地点辐角 263.319°
升交点赤经 307.522°
平近点角 144.581°
近地点: 504.185km
远地点: 506.735km
周期: 94.729分钟
每日圈数: 15.201263
详细信息
固有亮度:
5
最大亮度:
2.5
卫星平台:
Starlink v1.5
覆盖范围:
全球
运营商:
太空探索技术公司
运营商所在国:
美国
制造商(研发单位):
太空探索技术公司
制造商所在国:
美国
使用方式:
暂无
卫星简介
星链(Starlink)计划是由太空探索技术公司(SpaceX)提出的一个巨型低轨卫星互联网星座项目,计划在2019年至2024年间在太空搭建由约1.2万颗卫星组成的“星链”网络,其中1584颗将部署在地球上空550千米处的近地轨道,并从2020年开始工作。该卫星仍在工作。
2D轨道图
3D轨道图
轨道高度分析图
轨道倾角分析图
轨道综合分析图
查看轨道综合分析图